GAOFEN 4

Last updated on Nov. 13, 2019, 4:20 a.m. UTC

1 41194U 15083A   19316.42316965 -.00000321  00000-0  00000+0 0  9998
2 41194   0.1179 102.8836 0003831 117.8196  88.6219  1.00270778 14332
UTC
Height (km)
Latitude
Longitude
Inclination
Orbital Period
UTC large
Height (km)
Speed (km/s)
/
Latitude / Longitude
Inclination (degrees)
Orbital Period (minutes)
Azimuth
Elevation
Range (km)
Doppler Factor
iOS Compass Heading
iOS Angle

Next 30 passes for location: Hong Kong

Rise time Rise Azimuth (degrees) Set time Set Azimuth (degrees) Duration Max altitude (degrees)

No matching passes for this satellites